STARLINK-32917, 62921

Orbit data source: Space-Track

STARLINK-32917, 62921 is a payload satellite owned by SpaceX/Seattle (US) in LEO that was launched on Sat, 08 Feb 2025 UTC via an FALCON 9 launch vehicle from the Air Force Eastern Test Range (AFETR). Payload-class satellites include a variety of spacecraft equipped with specific instruments for various scientific and technological missions. These include communications satellites like Starlink; space stations such as the ISS; scientific satellites like the Hubble; Earth observation satellites from companies like Planet Labs, Umbra, and HawkEye 360; GPS; miniature CubeSats for education and research; and military/defense satellites.

Loading next visibility...
Identifier
62921, 2025-027Q
Orbit
LEO
Last TLE update
19 hours ago
Origin
Manufacturer
SpaceX/Seattle
Mission
Operational Commercial Communications
Bus & Motor
STARLINK V2M, Unknown motor
Mass
730 kg wet, ~700 kg dry
Launch date (UTC)
2025-02-08 (3 months ago)
Launch vehicle
FALCON 9
Launch site
Air Force Eastern Test Range (AFETR)
Object type
Payload
Rocket body
Debris
Shape & HBR
Box + 2 Pan, 29 m
Radar Cross Section
33.884 m², Large (>1 m²)

Expand to show TLE details & history

TLE from 19 hours ago
0 STARLINK-32917
1 62921U 25027Q   25128.47859615  .00000753  00000-0  36895-4 0  9999
2 62921  42.9949  52.5919 0000953 267.5968  92.4775 15.27575121 14869
Epoch: 2025-05-08T11:29Z
Definitive object data (Epoch: 2025-05-08T11:29:10.707Z)
Latitude
0.00002°
Longitude
13.7488°
Altitude
482.867 km
Speed
7.626 km/s
True Right ascension
03h 30m 22s
True Declination
0° 00' 00"
Sunlit
Object was in daylight at TLE epoch
Visualization TLE readout
Latitude
21.10638°
Longitude
164.85049°
Altitude
482.87 km
Speed
7.627 km/s
Apparent Right ascension
10h 33m 35s
Apparent Declination
-30° 57' 19"
Sunlit
Object is in full shadow
Visualization observer readout
Local Sidereal Time
15:06:43
Azimuth
233.102° WSW
Elevation
-4.972°
Doppler factor
1
Orbital elements
Apogee altitude
485.664 km
Perigee altitude
484.356 km
Semi-major axis
6,863.147 km
Eccentricity
0.0000953
Inclination
42.9949°
RAAN
52.5919°
Arg. of periapsis
267.5968°
True anomaly
92.48841°
Mean anomaly
92.4775°
Eccentric anomaly
92.48296°
Mean motion
3.81732 °/min
BSTAR
0.000036895
Orbital period
94.31 mins
Loading maneuver chart data...
Loading SW <> Apogee altitude chart data...
Loading historical data...
Loading historical data...
Loading historical data...
Loading historical data...
Loading historical data...
Loading historical data...
Loading historical data...

STARLINK-32917 Visibility forecast

Observer location: undefined°, undefined°

Span
Click to sort rows by Start time (UTC) header in descending order
Start Az.
Max El. time (UTC)
Max El. Az.
Max El.
End time (UTC)
End Az.
5 mins2025-05-09 22:14:48.475Z222.614° SW2025-05-09 22:16:48.475Z160.297° S38.479°2025-05-09 22:19:48.475Z80.308° E
5 mins2025-05-09 23:53:48.475Z279.231° WNW2025-05-09 23:55:48.475Z346.808° N40.294°2025-05-09 23:58:48.475Z68.96° E
5 mins2025-05-10 01:32:48.475Z294.824° NW2025-05-10 01:34:48.475Z346.344° N40.034°2025-05-10 01:37:48.475Z86.595° E
5 mins2025-05-10 03:11:48.475Z273.879° WNW2025-05-10 03:13:48.475Z220.09° SW37.006°2025-05-10 03:16:48.475Z134.743° SE
|